This demonstration page uses our WeatherBlox Daily Observations layout. Learn more.

Left ArrowRight Arrow

41.86663, -103.66717

Hourly Observations for May 10, 2021

Temp ( °F °C ) Dew Point ( °F °C ) Humidity (%) Winds ( mph kmh ) Pressure ( in mb ) Visibility ( mi km ) Precip ( " mm )
12:53 am 00:53 Clear 43 6.1 34 1.1 71 71 SW 6 9 30.10 1019 10 16 N/A
1:53 am 01:53 Clear 42 5.6 33 0.6 71 71 N N/A 30.09 1019 10 16 N/A
2:53 am 02:53 Mostly Clear 40 4.4 32 undefined 73 73 N 6 9 30.09 1019 10 16 N/A
3:53 am 03:53 Mostly Cloudy 38 3.3 31 -0.6 76 76 NNE 14 22 30.09 1019 10 16 N/A
4:53 am 04:53 Cloudy 37 2.8 31 -0.6 79 79 N N/A 30.11 1020 10 16 N/A
5:53 am 05:53 Cloudy 38 3.3 32 undefined 79 79 E 8 13 30.13 1020 10 16 N/A
6:53 am 06:53 Cloudy with Light Rain 37 2.8 33 0.6 86 86 NNE 5 7 30.14 1021 10 16 0.00 0.00
7:53 am 07:53 Cloudy 43 6.1 37 2.8 80 80 ENE 9 15 30.13 1020 10 16 0.01 0.25
8:53 am 08:53 Cloudy 43 6.1 36 2.2 76 76 ENE 7 11 30.16 1021 10 16 N/A
9:06 am 09:06 Cloudy with Light Rain 43 6.1 36 2.2 76 76 ENE 12 19 30.18 1022 10 16 0.00 0.00
9:53 am 09:53 Cloudy with Light Rain 43 6.1 37 2.8 80 80 E 12 19 30.17 1022 6 10 0.02 0.51
10:53 am 10:53 Cloudy with Light Rain 43 6.1 41 5 93 93 E 10 17 30.17 1022 6 10 0.07 1.78
11:48 am 11:48 Cloudy with Light Rain 45 7 N/A N/A E 12 19 30.17 1022 6 10 0.03 0.76
11:53 am 11:53 Cloudy with Light Rain 45 7 N/A N/A E 13 20 30.17 1022 6 10 0.03 0.76
12:06 pm 12:06 Cloudy with Light Rain 45 7 N/A N/A E 12 19 30.18 1022 6 10 0.01 0.25
12:53 pm 12:53 Cloudy with Light Rain 45 7 N/A N/A E 12 19 30.17 1022 7 11 0.04 1.02
1:27 pm 13:27 Cloudy with Light Rain 45 7 N/A N/A E 10 17 30.17 1022 5 8 0.01 0.25
1:38 pm 13:38 Cloudy with Light Rain 45 7 N/A N/A E 10 17 30.17 1022 5 8 N/A
1:51 pm 13:51 Cloudy with Light Rain 43 6 N/A N/A SE 13 20 30.19 1022 4 6 0.04 1.02
1:53 pm 13:53 Cloudy with Rain 43 6 N/A N/A SE 13 20 30.18 1022 4 6 0.04 1.02
2:08 pm 14:08 Cloudy with Rain 43 6 N/A N/A E 12 19 30.19 1022 3 5 0.03 0.76
2:53 pm 14:53 Cloudy with Light Rain 45 7 N/A N/A E 13 20 30.19 1022 7 11 0.06 1.52
3:12 pm 15:12 Cloudy with Light Rain 43 6 N/A N/A ESE 14 22 30.20 1023 6 10 0.02 0.51
3:28 pm 15:28 Cloudy with Light Rain 43 6 N/A N/A ESE 8 13 30.20 1023 6 10 0.04 1.02
3:53 pm 15:53 Cloudy with Light Rain 43 6 N/A N/A SE 8 13 30.20 1023 6 10 0.06 1.52
4:53 pm 16:53 Cloudy with Light Rain 43 6 N/A N/A ESE 8 13 30.22 1023 5 8 0.09 2.29
5:19 pm 17:19 Cloudy with Light Rain 43 6 N/A N/A ESE 7 11 30.21 1023 6 10 0.02 0.51
5:53 pm 17:53 Cloudy with Light Rain 43 6 N/A N/A E 6 9 30.22 1024 10 16 0.03 0.76
6:12 pm 18:12 Cloudy with Light Rain 43 6 N/A N/A ESE 6 9 30.22 1023 10 16 N/A
6:45 pm 18:45 Cloudy with Light Rain 43 6 N/A N/A SE 3 6 30.23 1024 10 16 0.00 0.00
6:53 pm 18:53 Cloudy with Light Rain 43 6 N/A N/A ESE 3 6 30.24 1024 10 16 0.00 0.00
7:53 pm 19:53 Cloudy with Light Rain 43 6 N/A N/A SE 5 7 30.24 1024 10 16 0.01 0.25
8:53 pm 20:53 Cloudy with Light Rain 43 6 N/A N/A ESE 7 11 30.26 1025 10 16 0.00 0.00
9:53 pm 21:53 Partly Cloudy 41 5 N/A N/A SE 6 9 30.28 1025 10 16 0.00 0.00
10:39 pm 22:39 Cloudy 43 6 N/A N/A ESE 8 13 30.28 1025 10 16 N/A
10:53 pm 22:53 Cloudy 43 6 N/A N/A ESE 7 11 30.27 1025 10 16 N/A
11:12 pm 23:12 Cloudy 41 5 N/A N/A ESE 8 13 30.28 1025 10 16 N/A
11:36 pm 23:36 Cloudy 41 5 N/A N/A ESE 6 9 30.29 1026 10 16 N/A
11:53 pm 23:53 Cloudy 41 5 N/A N/A ESE 5 7 30.27 1025 10 16 N/A

Powered by AerisWeather